Location: Brno
(49.2000°N, 16.6330°E)
Time: 02:46:06
(UTC+01:00)

Cosmos 1603 - Visible Passes

Search period start: 02 February 2015 00:00
Search period end: 12 February 2015 00:00
Orbit: 833 x 858 km, 71.0° (Epoch: 31 January)

Date Brightness Start Highest point End Pass type
(mag) Time Alt. Az. Time Alt. Az. Time Alt. Az.
02 Feb 6.0 06:08:25 10° N 06:11:28 15° NNE 06:14:39 10° ENE visible
03 Feb 6.0 05:54:36 10° N 05:57:36 15° NNE 06:00:42 10° ENE visible
04 Feb 6.0 05:40:47 10° N 05:43:42 14° NNE 05:46:46 10° ENE visible
05 Feb 6.1 05:26:58 10° N 05:29:49 14° NNE 05:32:49 10° ENE visible
06 Feb 6.1 05:13:09 10° N 05:15:56 14° NNE 05:18:52 10° ENE visible
07 Feb 6.1 04:59:21 10° N 05:02:03 14° NNE 05:04:55 10° ENE visible
07 Feb 4.7 06:42:20 10° NNW 06:47:45 47° NE 06:53:12 10° SE visible
08 Feb 6.2 04:45:32 10° N 04:48:11 13° NNE 04:50:58 10° ENE visible
08 Feb 4.7 06:28:30 10° NNW 06:33:54 46° NE 06:39:19 10° SE visible
09 Feb 6.2 04:31:44 10° N 04:34:18 13° NNE 04:37:01 10° ENE visible
09 Feb 4.8 06:14:40 10° NNW 06:20:02 45° NE 06:25:27 10° SE visible
10 Feb 6.2 04:17:55 10° N 04:20:25 13° NNE 04:23:03 10° NE visible
10 Feb 4.8 06:00:50 10° NNW 06:06:11 44° NE 06:11:35 10° SE visible
11 Feb 6.3 04:04:07 10° N 04:06:32 13° NNE 04:09:06 10° NE visible
11 Feb 4.8 05:46:59 10° NNW 05:52:20 43° NE 05:57:42 10° ESE visible
